Regional Weather Roundup
Issued by NWS

Home | Current Version | Previous Version | Text Only | Print | Product List | Glossary On
Versions: 1 2 3 4 5 6 7 8 9 10 11 12 13 14 15 16 17 18 19 20 21 22 23 24 25 26 27 28 29 30 31 32 33 34 35 36 37 38 39 40 41 42 43 44 45 46 47 48 49 50
000
ASUS44 KLUB 240910
RWRTX
WEST TEXAS WEATHER ROUNDUP
NATIONAL WEATHER SERVICE LUBBOCK TX
400 AM CDT SAT JUN 24 2017

NOTE: "FAIR" INDICATES FEW OR NO CLOUDS BELOW 12,000 FEET WITH NO
SIGNIFICANT WEATHER AND/OR OBSTRUCTIONS TO VISIBILITY.

TXZ004-006>008-010-012-014-016-OKZ002-241000-
TEXAS PANHANDLE/OKLAHOMA PANHANDLE

CITY           SKY/WX    TMP DP  RH WIND       PRES   REMARKS
AMARILLO       TSTM      57  54  89 NE13      30.23S
BORGER         CLOUDY    63  53  70 SE5       30.22F
CANADIAN       CLOUDY    66  53  62 N3        30.18F
DALHART        CLOUDY    64  50  60 NE7       30.27S
DUMAS          CLOUDY    62  47  57 E7        30.25F
GUYMON         CLOUDY    63  56  78 N3        30.22S
HEREFORD       CLOUDY    64  53  68 NE7       30.27R
PAMPA          CLOUDY    62  55  76 SW8       30.24R
PERRYTON       CLOUDY    65  53  65 NW3       30.22R
$$

TXZ026-029-035-045-048-241000-
SOUTHERN PANHANDLE/SOUTH PLAINS/ROLLING PLAINS

CITY           SKY/WX    TMP DP  RH WIND       PRES   REMARKS
CHILDRESS      TSTM      64  60  87 N7        30.14R
SEMINOLE       CLEAR     68  55  62 NE8       30.11S
LUBBOCK        PTCLDY    70  50  49 NE15G25   30.14S
PLAINVIEW      CLOUDY    57  53  88 E23       30.18R
SNYDER         CLOUDY    74  55  50 N15       30.05R
$$

TXZ052-054-060>062-072-078-127-140-154-169-241000-
PERMIAN BASIN/CONCHO VALLEY/BIG COUNTRY/EDWARDS PLATEAU

CITY           SKY/WX    TMP DP  RH WIND       PRES   REMARKS
ABILENE        CLEAR     79  71  76 NE5       29.94R
BIG SPRING     PTCLDY    69  63  82 N12       30.03S
BROWNWOOD      MOCLDY    81  68  65 S6        29.91R
JUNCTION       CLOUDY    78  60  53 S5        29.93S
MIDLAND        PTCLDY    71  55  56 NW5       29.99F
ODESSA         CLOUDY    72  57  59 CALM      30.02F
SAN ANGELO       N/A    N/A N/A N/A MISG      29.92R
SONORA         CLOUDY    73  63  68 SW7       29.97R
SWEETWATER     PTCLDY    76  58  53 N20G25    30.04R
WINK           CLEAR     72  60  66 MISG      30.00F
$$

TXZ055-058-074-075-080-082-241000-
FAR WEST/SOUTHWEST MOUNTAINS/TRANS PECOS

CITY           SKY/WX    TMP DP  RH WIND       PRES   REMARKS
ALPINE         CLEAR     71  57  62 S7        30.15R
DRYDEN           N/A     76  60  57 W6        29.97S
EL PASO        MOCLDY    83  52  34 NE10      30.03R
FORT STOCKTON  CLOUDY    73  59  61 S9        30.00S
GUADALUPE PASS CLEAR     69  55  60 NE37      30.15S
MARFA          CLEAR     68  57  68 S10       30.16R
PECOS          CLEAR     71  63  75 NE5       30.01R
PRESIDIO       FAIR      82  60  46 NE7       30.00S
$$

TXZ014-016-019-021>030-083-241000
TEXAS TECH WEST TEXAS MESONET/TEXAS PANHANDLE/NORTHERN SOUTH PLAINS

CITY           SKY/WX    TMP DP  RH WIND       PRES   REMARKS
ABERNATHY 5ENE   N/A     67  50  54 NE21      30.17R
AMARILLO 9NNE    N/A     57  57 100 E10       30.24S
AMARILLO 7SSE  LGT RAIN  59  53  79 N12       30.25S
AMHERST 1NE      N/A     64  51  62 NE13      30.19R
BOOTLEG 11WNW    N/A     61  48  63 NE17      30.28F
CANADIAN 6E      N/A     64  51  62 NW3       30.16F
CAPROCK CYN SP   N/A     61  58  91 N15       30.18S
CHILDRESS 2NNE LGT RAIN  61  59  92 N10       30.13R
CLARENDON 2WSW LGT RAIN  59  55  88 NE10      30.17F
CLAUDE 12SW      N/A     58  53  83 NE13      30.22S
DIMMITT 2NE      N/A     63  49  61 NE18      30.22F
FLOYDADA 2NNE    N/A     61  53  72 NE22      30.16S
FRIONA 2NE       N/A     62  50  66 NE13      30.25S
GOODLETT 3W    LGT RAIN  62  60  90 NE15      30.10F
HART 3N        LGT RAIN  61  54  77 N13       30.23R
HEREFORD 2NW   RAIN      56  49  79 E13       30.24S
MCLEAN 1E      LGT RAIN  59  53  80 N9        30.15F
MEMPHIS 1NE    LGT RAIN  62  59  91 NW7       30.17R
MULESHOE 2SSW    N/A     66  51  57 NE12      30.20S
OLTON 6S         N/A     65  53  65 N13       30.18S
PALO DURO SP     N/A     58  54  86 NE3       30.23S
PAMPA 2E         N/A     57  55  92 SW6       30.24R
PLAINVIEW 1S     N/A     61  55  80 NE15      30.19R
SILVERTON 7ESE   N/A     58  55  88 N16       30.19S
TULIA 2ENE       N/A     61  53  76 NE20      30.22R
TURKEY 2WSW      N/A     61  58  90 N17       30.17R
UMBARGER 3NNE    N/A     58  54  86 N9        30.27R
$$

TXZ033>036-039>041-045>048-241000
TEXAS TECH WEST TEXAS MESONET/SOUTH PLAINS

CITY           SKY/WX    TMP DP  RH WIND       PRES   REMARKS
AIKEN 3WSW       N/A     60  56  85 NE18      30.20R
ANDREWS 2NE      N/A     67  59  76 N8        30.06S
ANTON 6SSW       N/A     68  51  53 NE16      30.15F
BROWNFIELD 2S    N/A     70  51  50 NE13      30.12F
DENVR CTY 7WNW   N/A     66  49  53 NE8       30.13F
GAIL 2ESE        N/A     71  52  49 N14       30.06R
LAMESA 2SE       N/A     71  53  53 N13       30.07S
LEVELLAND 4S     N/A     69  48  48 NE15      30.16
LUBBOCK 3WNW     N/A     69  49  47 NE14      30.15F
MORTON 1ENE      N/A     68  49  50 NE14      30.18S
ODONNELL 1N      N/A     71  50  47 NE16      30.09F
PLAINS 3N        N/A     68  49  49 NE13      30.15F
RALLS 1SE        N/A     67  49  51 NE28      30.16R
REESE CENTER     N/A     68  49  50 NE18      30.15S
SEAGRAVES 1SW    N/A     70  51  50 NE9       30.12S
SEMINOLE 2NNE    N/A     67  55  63 N9        30.10F
SLATON 2NE       N/A     70  50  48 NE17      30.13S
SNYDER 3E        N/A     74  55  50 N18       30.04R
SUNDOWN 8SW      N/A     68  49  50 N12       30.16S
TAHOKA 3NNE      N/A     70  50  49 N14       30.12S
WOLFFORTH 6SSW   N/A     70  49  47 NE18      30.14F
$$

TXZ031-032-036>038-042>044-241000-
TEXAS TECH WEST TEXAS MESONET/ROLLING PLAINS

CITY           SKY/WX    TMP DP  RH WIND       PRES   REMARKS
ASPERMONT 3NE    N/A     75  53  47 N18G30    30.03R
FLUVANNA 3WNW    N/A     73  51  46 N18       30.08R
GRAHAM 5SSW      N/A     72  53  50 N20       30.10S
GUTHRIE 10WSW    N/A     65  56  71 N23G32    30.08R
HASKELL 1NW      N/A     71  58  63 N28       30.01R
JAYTON 1SSE      N/A     72  54  52 N25G37    30.05R
KNOX CITY 3NW    N/A     67  58  71 N20       30.06R
LK A HENRY 1NW   N/A     74  51  44 N17       30.09R
NORTHFIELD 1S    N/A     62  57  86 N10       30.15R
ODELL 4ENE       N/A     64  63  95 SE8       30.12S
PADUCAH 10SW     N/A     64  58  83 N13       30.12F
POST 1NE         N/A     73  50  44 N17       30.11R
RRING SPRGS 3N   N/A     62  56  82 N17       30.15R
SPUR 1W          N/A     68  52  56 NE26G38   30.07R
WEINERT 2NNE     N/A     66  61  82 N21       30.03R
WHITE RVR 6NE    N/A     69  49  48 N28G37    30.11R
$$

TXZ052-054-060>062-072-078-127-140-154-169-241000-
TEXAS TECH WEST TEXAS MESONET/PERMIAN BASIN/
CONCHO VALLEY/BIG COUNTRY/EDWARDS PLATEAU

CITY           SKY/WX    TMP DP  RH WIND       PRES   REMARKS
COYANOSA 2N      N/A     69  64  81 SW1       29.99S
JUNCTION 1SSW    N/A     78  59  52 S5        29.93S
MERTZON 3NNE     N/A     69  62  77 SW5       29.98R
STRLNG CT 4WSW   N/A     70  60  70 NW6       29.96F
ST LAWRNCE 5SW   N/A     66  60  81 N9        29.95F
SWEETWATR 11SW   N/A     74  60  62 N18       30.02R
WALL 1E          N/A     74  65  75 E6        29.96R
$$

TXZ055-058-074-075-080-082-241000-
TEXAS TECH WEST TEXAS MESONET/FAR WEST/SOUTHWEST MOUNTAINS/TRANS PECOS

CITY           SKY/WX    TMP DP  RH WIND       PRES   REMARKS
PRSMN GAP BBNP   N/A     77  60  56 NE10      30.00F
GUADLPE MTN NP   N/A     69  51  53 NE5       30.22F
$$



USA.gov is the U.S. government's official web portal to all federal, state and local government web resources and services.